Location: Newark
(13.0328°N, 9.6142°E)
Time: 00:49:07
(UTC+00:00)

Hubble Space Telescope - Visible Passes

Search period start: 14 October 2019 00:00
Search period end: 24 October 2019 00:00
Orbit: 536 x 540 km, 28.5° (Epoch: 13 October)

Date Brightness Start Highest point End Pass type
(mag) Time Alt. Az. Time Alt. Az. Time Alt. Az.
14 Oct 1.2 17:28:45 10° NW 17:32:44 46° NNE 17:36:36 11° E visible
14 Oct 3.2 19:10:11 10° W 19:11:58 21° WSW 19:11:58 21° WSW visible
15 Oct 0.9 17:18:06 10° NW 17:22:12 63° NNE 17:26:18 10° ESE visible
15 Oct 3.0 19:00:00 10° W 19:02:36 22° SW 19:02:36 22° SW visible
16 Oct 3.2 18:50:03 10° WSW 18:52:41 16° SSW 18:53:21 16° SSW visible
17 Oct 3.6 18:40:34 10° SW 18:42:06 12° SSW 18:43:38 10° S visible
21 Oct 3.5 04:25:43 10° S 04:27:47 13° SSE 04:29:52 10° ESE visible
22 Oct 3.2 04:14:17 10° SSW 04:17:12 19° SSE 04:20:08 10° ESE visible
23 Oct 2.7 04:03:10 10° SSW 04:06:37 26° SSE 04:10:04 10° E visible
